Theta_e
327 332 332 332 332 332 332 332 334 333 331 333 335 336 337 336 336 339 341 341 338 335 333 332 337 335 338 340 340 338 333 331 333 332 333 334 334 330 330 330 330 330 326 324
330 332 331 330 331 331 331 332 333 332 332 334 334 335 335 335 333 333 335 334 334 332 332 338 334 335 337 338 337 336 331 331 333 334 332 332 331 330 330 330 329 326 321 321
330 331 329 331 332 332 332 331 332 331 332 334 335 336 337 336 335 334 334 335 333 334 339 336 336 334 335 335 336 335 332 332 332 332 331 331 330 330 330 325 323 321 321 321
329 328 329 331 332 332 333 331 330 330 331 333 334 333 334 335 335 333 336 338 334 334 335 336 335 335 335 334 335 335 334 334 332 332 331 331 331 329 322 321 321 321 321 321
329 329 329 330 330 330 330 329 330 331 332 332 333 336 336 334 336 335 340 339 336 335 337 336 336 336 337 335 336 336 335 335 334 331 330 328 327 321 322 321 320 320 318 317
329 326 327 329 329 328 329 330 329 328 330 333 332 334 332 335 336 335 340 338 336 338 337 336 336 337 337 337 336 336 335 331 331 329 327 323 322 319 318 317 318 318 317 313
328 327 325 326 328 328 329 331 333 333 333 333 332 333 334 333 332 333 340 338 337 338 336 335 335 336 336 336 335 332 331 326 324 323 320 315 314 315 316 318 318 316 309 306
332 332 331 329 329 331 330 332 334 336 338 335 333 337 337 333 334 333 338 338 337 337 335 333 333 334 334 333 332 325 317 318 318 316 316 316 317 317 320 318 312 306 307 307
332 332 330 331 330 331 333 335 328 336 335 337 335 335 333 334 335 335 337 337 336 336 333 327 327 330 329 326 322 317 317 317 317 317 318 318 320 319 316 309 307 308 309 309
332 334 332 333 331 331 333 332 337 336 338 338 336 337 338 336 337 336 337 336 336 336 330 325 325 324 322 318 318 318 318 318 318 319 319 319 319 315 308 308 309 310 310 309
334 335 335 333 335 335 335 335 333 334 335 338 339 338 334 334 333 336 336 337 336 335 332 330 324 321 320 319 318 318 318 319 319 319 319 319 315 308 308 310 311 311 310 308
335 338 340 336 331 331 332 334 335 337 338 337 336 338 329 333 332 333 334 335 335 334 331 329 324 321 320 320 320 320 319 319 320 319 319 315 311 309 310 311 311 311 310 305
334 338 339 335 333 333 335 334 333 333 334 338 340 338 331 331 333 332 333 333 333 333 331 328 323 322 321 321 320 320 320 320 320 319 316 314 310 310 312 312 311 311 310 306
331 336 337 338 336 333 335 334 333 334 338 337 336 335 334 334 334 331 332 333 333 332 330 329 326 323 322 321 321 321 321 322 321 318 315 313 311 311 312 312 312 312 311 307
333 337 334 335 333 333 334 334 335 336 336 337 335 336 335 333 333 331 331 333 332 332 330 328 327 327 324 322 322 322 320 321 320 317 314 314 312 311 312 313 313 312 312 309
332 336 335 336 332 333 334 334 335 335 334 336 336 336 331 325 327 330 331 333 332 332 331 329 327 324 324 323 324 321 319 318 316 315 314 313 313 312 311 313 313 313 312 311
334 336 336 338 333 334 336 337 336 331 328 330 333 328 324 324 322 323 327 329 330 330 330 329 327 325 325 320 321 320 317 316 315 314 314 314 314 313 312 312 313 313 313 312
334 335 335 338 335 338 333 333 334 328 326 326 328 325 321 318 318 318 320 320 320 321 323 324 322 319 318 318 318 317 315 315 315 315 315 315 315 314 314 313 313 313 313 313
331 334 337 338 336 333 330 332 333 331 330 325 326 324 323 322 318 321 320 318 318 319 319 318 318 318 316 315 315 316 316 316 316 317 315 315 314 314 314 314 314 314 314 313
331 332 335 336 335 334 332 333 332 331 332 325 324 326 326 323 326 323 319 319 320 320 319 319 318 317 316 316 316 316 316 316 316 316 316 317 317 317 315 315 314 314 314 314
334 333 335 334 336 334 332 333 331 333 331 327 326 325 323 323 321 320 320 319 319 319 318 318 318 317 316 316 316 316 316 316 316 317 318 317 318 319 318 317 316 316 316 314
335 335 334 335 336 336 330 332 331 330 325 323 322 322 322 320 320 319 319 319 318 318 318 317 317 316 316 316 316 316 317 317 317 318 318 318 318 318 318 316 316 315 316 314
336 333 336 333 335 329 329 330 330 321 322 320 321 320 319 320 319 318 319 318 316 316 316 316 315 316 317 317 317 317 317 317 318 318 318 318 318 319 318 318 318 317 316 317
330 327 333 332 331 329 323 322 320 319 319 319 319 319 320 320 320 320 319 317 316 316 316 316 316 315 314 313 313 313 313 314 314 315 316 316 317 317 317 317 315 317 315 315
332 330 332 332 328 322 323 322 321 321 321 321 321 320 320 320 319 318 317 316 316 316 315 314 312 310 309 308 308 307 307 308 309 308 309 310 310 312 312 311 313 313 313 314
329 332 333 334 327 325 323 321 322 323 321 321 320 320 319 319 318 316 313 313 311 311 310 310 308 307 306 305 304 304 303 302 302 300 299 299 300 301 302 304 308 309 311 313
Wind_Speed
1 4 6 9 5 3 3 6 8 8 3 3 4 4 7 6 7 8 8 7 7 5 6 6 7 3 1 2 2 7 9 6 6 6 4 8 11 11 10 13 16 17 16 19
1 7 9 4 6 5 7 8 11 6 3 4 5 9 7 8 6 6 7 5 4 5 4 1 3 2 4 5 5 6 10 4 7 8 5 9 12 12 14 17 13 11 12 13
6 7 2 6 9 10 11 10 12 10 1 3 3 6 6 6 7 8 8 6 7 6 4 3 2 6 7 6 6 9 8 3 6 10 3 6 9 11 12 9 7 10 13 16
7 4 8 8 10 11 13 17 13 10 8 10 2 9 5 7 9 8 8 6 10 8 6 5 4 5 7 7 6 6 6 7 7 7 4 5 7 3 4 6 9 13 16 16
14 7 6 8 17 7 15 8 9 7 7 3 6 5 3 1 10 12 9 6 9 10 8 7 5 4 5 7 7 6 5 6 7 3 1 1 2 2 6 9 12 13 16 19
17 5 5 15 13 9 8 8 6 1 3 6 7 5 8 5 11 9 7 6 9 11 10 7 6 4 5 6 5 4 3 4 3 2 3 4 4 7 9 11 13 17 19 22
3 6 5 5 8 2 2 2 6 8 7 10 1 5 10 7 6 8 10 10 10 10 9 7 6 3 4 6 5 4 2 2 5 6 4 6 8 10 12 14 16 20 21 19
4 6 2 3 3 2 2 2 5 14 12 14 2 5 3 2 1 2 9 10 10 10 9 8 6 5 6 5 4 6 6 6 5 4 5 7 9 11 12 15 19 15 17 19
3 5 1 3 1 2 4 3 2 2 1 4 3 4 9 3 4 4 10 11 11 9 12 11 7 7 7 8 8 7 6 5 3 2 5 9 10 10 13 17 12 15 18 21
1 6 1 1 2 6 2 6 3 3 6 10 3 4 8 3 8 9 11 13 13 12 15 12 10 9 9 10 9 6 4 2 3 6 9 11 12 14 14 10 13 17 20 22
3 4 5 2 6 8 3 3 1 2 2 5 8 4 2 10 8 11 13 15 16 17 17 13 12 11 9 9 10 9 7 7 9 10 11 12 14 14 9 10 14 18 20 21
2 2 6 11 2 3 2 4 5 5 5 3 3 6 1 8 7 11 15 16 15 16 16 14 14 11 11 12 12 12 11 12 11 11 12 13 15 11 10 12 15 17 20 20
1 1 6 7 4 2 2 1 3 1 1 10 7 7 2 2 1 8 14 16 16 16 16 16 16 14 14 14 14 14 14 14 13 13 14 15 15 11 12 13 15 16 19 18
3 2 8 12 15 3 9 6 5 6 6 12 11 18 7 6 7 7 11 16 18 18 18 17 16 17 17 16 16 17 17 16 15 15 16 17 17 14 14 14 15 17 19 18
0 4 3 10 10 8 10 12 9 10 13 8 14 11 13 9 8 16 14 14 16 17 19 19 17 15 16 16 17 18 18 17 16 18 18 19 17 16 17 16 17 18 19 18
2 2 3 9 4 4 7 6 6 6 10 9 11 11 10 14 6 8 15 15 14 17 16 15 14 15 15 16 17 15 12 12 15 18 18 17 17 17 17 18 19 20 19 20
0 3 3 3 8 9 2 9 7 10 11 7 6 8 11 10 8 8 6 3 10 13 14 15 15 13 15 13 14 11 10 13 15 17 16 17 18 18 18 19 21 21 20 21
0 1 1 4 9 1 3 4 6 10 13 11 11 13 15 13 6 6 7 1 6 10 8 6 5 6 5 9 10 9 10 12 13 15 16 18 19 19 18 20 20 21 21 22
1 2 1 2 3 3 3 5 4 1 6 7 10 10 19 4 15 4 10 7 9 9 6 4 1 2 3 4 5 9 11 14 16 19 21 23 25 27 26 25 23 22 24 23
3 2 1 1 1 3 4 6 1 2 5 5 7 5 10 15 2 6 12 12 10 7 3 1 3 4 2 6 11 15 19 21 23 23 24 24 22 29 30 27 29 28 27 26
1 0 1 1 1 2 2 5 1 1 1 6 8 5 7 9 7 8 6 5 3 4 6 7 9 9 10 15 18 18 19 21 25 26 27 19 27 25 29 27 28 25 28 28
2 2 2 1 2 1 2 4 0 3 4 2 3 5 7 7 7 8 9 11 12 12 12 11 9 10 13 16 15 15 15 19 19 21 21 22 24 19 28 30 28 22 30 27
2 3 0 4 1 3 6 6 4 1 0 3 4 4 6 6 8 8 9 8 8 7 6 5 3 7 9 9 10 10 13 16 18 17 17 18 19 21 22 23 22 23 26 27
4 4 2 2 2 3 2 3 5 6 8 7 8 8 8 8 9 9 9 10 10 10 8 5 4 7 9 12 14 15 15 16 16 17 18 18 17 17 18 17 15 17 17 20
2 9 4 3 2 7 5 6 9 13 14 12 10 10 10 9 10 10 11 12 12 10 10 10 11 12 13 15 16 18 20 21 22 22 22 23 23 23 21 17 17 16 14 14
8 5 5 3 10 4 4 5 8 10 11 10 8 10 10 8 9 9 11 12 11 11 12 12 14 15 16 18 21 22 24 25 27 26 24 23 23 23 21 22 22 18 20 21
Wind_Direction
120 225 233 247 224 312 267 268 272 278 274 257 260 210 206 218 250 240 228 236 230 230 228 266 280 281 351 231 226 170 152 122 77 26 293 259 267 272 265 276 289 296 294 302
164 237 244 225 224 247 265 289 271 285 210 235 231 256 195 207 233 221 208 211 212 206 219 351 47 89 126 124 135 163 165 87 27 3 325 268 271 270 279 289 293 296 305 307
231 253 60 224 241 257 267 253 278 290 203 246 257 262 207 206 221 212 230 224 206 197 180 137 84 108 134 140 138 167 191 229 351 347 321 254 264 282 282 298 296 301 319 324
260 294 236 237 259 254 273 277 268 275 293 290 285 294 261 218 204 210 208 214 187 183 172 151 137 136 153 165 156 182 223 256 290 315 300 270 264 259 289 299 312 323 323 325
254 244 203 230 243 240 267 299 279 286 273 271 232 253 275 279 238 212 179 157 149 157 165 166 174 162 157 171 180 186 213 254 289 282 272 195 153 331 320 317 320 321 325 325
264 270 248 255 276 242 267 269 270 134 235 258 285 255 287 234 238 208 156 143 146 148 163 172 189 186 165 174 176 194 216 252 278 324 102 84 11 340 331 328 324 322 318 316
288 252 280 255 272 160 171 240 284 279 258 283 33 242 277 307 284 246 167 160 157 156 167 173 193 194 160 160 166 174 173 83 85 86 43 19 360 340 331 322 318 315 316 325
279 291 210 164 256 328 174 233 287 293 291 296 134 250 292 5 15 14 163 160 164 159 162 150 160 167 150 149 151 126 101 103 90 63 23 351 332 319 313 315 315 321 327 332
235 256 308 31 161 291 150 247 48 280 227 268 281 274 265 254 206 174 171 168 167 167 154 147 166 167 149 139 141 127 109 95 68 354 317 314 306 309 311 314 325 330 330 331
250 274 218 134 180 62 285 127 247 252 277 285 244 273 280 274 228 203 181 184 176 169 163 164 179 165 155 153 153 139 152 170 263 286 293 295 300 309 313 318 328 331 329 325
205 236 259 261 217 256 172 217 141 285 256 279 294 264 226 295 298 214 193 185 180 175 178 180 185 174 176 195 207 217 232 256 265 281 285 288 302 307 298 317 327 331 331 325
41 271 251 263 48 16 292 276 227 247 227 228 291 268 272 289 292 206 186 184 182 183 186 190 192 186 199 214 226 239 253 261 273 275 277 290 307 295 296 312 320 324 329 327
87 238 289 267 230 114 283 253 223 98 164 241 264 265 40 360 88 205 182 180 184 194 199 200 203 210 219 228 239 249 261 268 271 273 279 293 303 287 302 308 316 317 327 329
197 230 260 281 295 281 275 253 219 220 266 280 257 284 278 262 232 201 195 195 195 200 207 212 216 223 232 239 250 262 270 275 275 275 282 294 304 286 299 302 312 315 324 329
359 270 271 286 289 270 267 275 290 249 271 266 292 274 308 306 301 219 201 207 206 208 215 220 226 233 243 253 263 273 277 275 271 279 285 296 305 290 292 297 304 311 321 323
23 292 315 297 331 336 282 315 302 319 352 264 288 292 353 328 328 195 194 190 207 221 228 234 238 247 260 267 274 277 281 281 281 284 292 295 298 303 290 299 301 303 311 318
335 312 324 283 324 304 175 356 20 60 27 339 25 10 351 25 20 87 91 189 235 244 245 245 253 268 279 286 278 276 292 282 281 286 293 295 299 300 304 297 299 304 303 310
131 122 245 302 321 70 360 340 76 73 37 26 45 37 31 23 304 105 103 107 289 276 277 270 268 265 287 289 289 279 272 274 278 287 296 297 298 301 306 301 300 300 304 302
62 146 145 334 344 308 85 26 357 342 65 79 114 80 59 287 263 47 46 56 64 70 83 112 141 216 299 290 265 264 264 274 280 289 296 304 306 302 299 298 303 304 301 301
97 69 283 180 360 26 15 347 77 186 75 229 171 164 202 240 89 38 44 51 42 37 45 306 238 241 277 270 261 266 278 286 291 297 304 311 301 301 299 297 300 301 300 299
145 60 291 195 255 221 300 336 245 77 228 299 286 320 37 56 58 49 57 52 15 319 289 267 249 260 280 296 300 299 299 299 295 301 303 296 292 300 306 297 293 301 302 297
239 226 204 164 226 197 5 280 359 7 326 334 50 57 56 50 31 7 356 347 336 324 318 315 311 295 297 295 296 295 295 299 301 303 302 295 302 302 294 281 292 288 293 297
229 238 275 223 327 330 297 262 302 291 40 50 60 58 74 51 34 24 23 13 9 12 16 360 315 273 294 321 330 330 332 324 317 315 313 313 312 293 286 290 298 287 279 293
210 180 233 240 166 284 51 106 142 126 117 101 94 93 88 71 66 63 58 55 47 44 41 35 25 7 2 356 349 352 347 341 336 330 324 321 321 321 323 327 326 316 295 292
134 162 192 238 196 137 109 112 119 118 112 104 92 83 83 91 82 70 58 49 48 42 34 22 15 11 8 1 357 352 348 342 339 336 330 326 326 323 322 317 311 319 322 315
188 175 192 214 173 190 125 136 146 134 114 108 105 98 88 76 70 49 46 41 32 26 22 15 10 2 356 349 345 340 339 337 334 332 332 331 332 325 326 318 314 313 305 297